AirNav  
 
 547 users online  

2GE2 Georgia Baptist Urgent Care Heliport
Fayetteville, Georgia, USA


FAA INFORMATION EFFECTIVE 09 NOVEMBER 2017

Location

FAA Identifier: 2GE2
Lat/Long: 32-26-56.5200N / 084-28-47.7100W
32-26.942000N / 084-28.795167W
32.4490333 / -84.4799194
(estimated)
Elevation: 860 ft. / 262 m (estimated)
Variation: 03W (1995)
Time zone: UTC -5 (UTC -4 during Daylight Saving Time)
Zip code: 31058

Heliport Operations

Heliport use: Private use. Permission required prior to landing
Activation date: 07/1999
Control tower: no
ARTCC: ATLANTA CENTER
FSS: MACON FLIGHT SERVICE STATION
Attendance: CONTINUOUS
Wind indicator: yes
Segmented circle: no
Lights: FOR PERIMETER LGTS CALL 770-653-3646.

Heliport Communications

WX AWOS-3 at 6A1 (14 nm NE): 119.525 (478-862-2966)

Nearby radio navigation aids

VOR radial/distance  VOR name  Freq  Var
LSFr077/26.9LAWSON VOR/DME111.4002W
CSGr109/29.0COLUMBUS VORTAC117.1001E

 
NDB name  Hdg/Dist  Freq  Var  ID
MONTEZUMA286/24.442604WIZS .. --.. ...
LINDBERGH315/25.024204WLKG .-.. -.- --.
LAWSON073/29.133502WAWS .- .-- ...
PINE MOUNTAIN143/30.927203WPIM .--. .. --

Heliport Services

Fuel available: A

Runway Information

Helipad H1

Dimensions: 40 x 40 ft. / 12 x 12 m
Surface: concrete, in good condition
Runway edge lights: PERI
Traffic pattern: leftleft

Heliport Ownership and Management from official FAA records

Ownership: Privately-owned
Owner: BAPTIST CONVENTION EXEC COMMITTEE
300 BOULEVARD, NE, P.O. BOX 288
ATLANTA, GA 30312
Phone 770-653-4455
Manager: RALPH MC DANIEL
300 BOULEVARD, NE, P.O. BOX 288
ATLANTA, GA 30312
Phone 770-653-3646

Heliport Operational Statistics

Aircraft based on the field: 1
Helicopters: 1
    

Instrument Procedures

There are no published instrument procedures at 2GE2.

Some nearby airports with instrument procedures:

6A1 - Butler Municipal Airport (14 nm NE)
KCSG - Columbus Airport (24 nm W)
KACJ - Jimmy Carter Regional Airport (25 nm SE)
53A - Dr. C P Savage Sr. Airport (26 nm E)
KLSF - Lawson Army Airfield (Fort Benning) (27 nm W)
 
Loc | Ops | Rwys | IFR | FBO | Links
Com | Nav | Svcs | Stats | Notes


 
Area around 2GE2 (Georgia Baptist Urgent Care Heliport)
 
Road maps at: MapQuest Bing Google
 
Aerial photo
No photo
 
Sectional chart

 
Airport distance calculator
Flying to Georgia Baptist Urgent Care Heliport? Find the distance to fly.

From to 2GE2

Sunrise and sunset
Times for 25-Nov-2017
 Local
(UTC-5)
 Zulu
(UTC)
Morning civil twilight06:5111:51
Sunrise07:1712:17
Sunset17:3222:32
Evening civil twilight17:5922:59

Current date and time
Zulu (UTC)  25-Nov-2017 05:38:12
Local (UTC-5)  25-Nov-2017 00:38:12
 
METAR
K6A1 
14nm NE 
250515Z AUTO 21004KT 10SM 10/05 A3000 RMK AO2 T00980045
KCSG 
24nm W 
250451Z AUTO 00000KT 10SM CLR 08/06 A3000 RMK AO2 SLP156 T00780056 401940056
KACJ 
25nm SE 
250515Z AUTO 00000KT 10SM CLR 05/02 A3002 RMK AO2
TAF
KCSG 
24nm W 
241733Z 2418/2518 VRB03KT P6SM SKC FM250000 00000KT P6SM SCT250 FM251000 27003KT P6SM SCT030 BKN250
KLSF 
28nm W 
250422Z 2504/2607 11006KT 1600 BR SCT020 SCT200 QNH2998INS TEMPO 2504/2512 0800 FG BECMG 2512/2513 23006KT 9999 NSW FEW100 SCT200 QNH3002INS BECMG 2515/2516 26006KT 9999 FEW250 QNH2998INS TX19/2521Z TN03/2512Z
NOTAMs
Click for the latest NOTAMs
NOTAMs are issued by the DoD/FAA and will open in a separate window not controlled by AirNav.

 

 
 

Would you like to see your business listed on this page?

 If your business provides an interesting product or service to pilots, flight crews, aircraft, or users of the Georgia Baptist Urgent Care Heliport, you should consider listing it here.  To start the listing process, click on the button below
 
Add a business
 

Other Pages about Georgia Baptist Urgent Care Heliport

Update a link
 
Copyright © AirNav, LLC. All rights reserved. Privacy Policy  Contact